Weather History for KGZH - October, 2012

Change the Weather History Date:

Sunday, October 14, 2012

  Actual Average (KPRN) Record (KPRN)
Temperature  
Mean Temperature 72 °F -  
Max Temperature 86 °F 79 °F 90 °F (1954)
Min Temperature 61 °F 53 °F 33 °F (1977)
Cooling Degree Days 6    
Growing Degree Days 22 (Base 50)    
Moisture  
Dew Point 64 °F    
Average Humidity 85    
Maximum Humidity 94    
Minimum Humidity 58    
Precipitation  
Precipitation 0.01 in - - ()
Sea Level Pressure  
Sea Level Pressure 30.12 in    
Wind  
Wind Speed 2 mph (SSE)    
Max Wind Speed 7 mph    
Max Gust Speed -    
Visibility 6 miles    
Events      
Averages and records for this station are not official NWS values.
T = Trace of Precipitation, MM = Missing Value Source: NWS Daily Summary

Daily Weather History Graph

Daily Weather History Graph

Search for Another Location

Airport or City:

Trip Planner

Search our weather history database for the weather conditions in past years. The results will help you decide how hot, cold, wet, or windy it might be!

Date:

Astronomy

Oct. 14, 2012 Rise Set
Actual Time 6:50 AM CDT 6:16 PM CDT
Civil Twilight 6:26 AM CDT 6:41 PM CDT
Nautical Twilight 5:58 AM CDT 7:09 PM CDT
Astronomical Twilight 5:29 AM CDT 7:37 PM CDT
Moon 5:50 AM CDT (10/14) 5:37 PM CDT (10/14)
Length of Visible Light 12h 14m
Length of Day
11h 25m
Waning Crescent, 1% of the Moon is Illuminated
Oct 14
Waning Crescent
Oct 15
New
Oct 21
First Quarter
Oct 29
Full
Nov 6
Last Quarter

Hourly Weather History & Observations

Time (CDT) Temp. Heat Index Dew Point Humidity Pressure Visibility Wind Dir Wind Speed Gust Speed Precip Events Conditions
12:53 AM 64.9 °F - 63.0 °F 93% 30.17 in 4.0 mi Calm Calm - N/A   Clear
1:53 AM 64.0 °F - 61.0 °F 90% 30.16 in 3.0 mi Calm Calm - N/A   Clear
2:07 AM 62.6 °F - 60.8 °F 94% 30.16 in 1.8 mi Calm Calm - N/A   Clear
2:19 AM 62.6 °F - 60.8 °F 94% 30.15 in 3.0 mi Calm Calm - N/A   Clear
2:49 AM 62.6 °F - 60.8 °F 94% 30.15 in 2.5 mi Calm Calm - N/A   Clear
2:53 AM 62.1 °F - 60.1 °F 93% 30.14 in 2.0 mi Calm Calm - N/A   Clear
3:01 AM 62.6 °F - 60.8 °F 94% 30.15 in 1.8 mi Calm Calm - N/A   Clear
3:07 AM 62.6 °F - 60.8 °F 94% 30.15 in 3.0 mi Calm Calm - N/A   Clear
3:22 AM 62.6 °F - 60.8 °F 94% 30.14 in 4.0 mi Calm Calm - N/A   Partly Cloudy
3:53 AM 61.0 °F - 59.0 °F 93% 30.13 in 3.0 mi Calm Calm - N/A   Clear
4:53 AM 64.0 °F - 61.0 °F 90% 30.12 in 7.0 mi SE 5.8 mph - N/A   Clear
5:53 AM 64.0 °F - 61.0 °F 90% 30.13 in 7.0 mi SE 4.6 mph - N/A   Clear
6:53 AM 64.0 °F - 62.1 °F 93% 30.14 in 4.0 mi Calm Calm - 0.01 in   Scattered Clouds
7:04 AM 64.4 °F - 62.6 °F 94% 30.15 in 4.0 mi SSE 3.5 mph - N/A   Mostly Cloudy
7:45 AM 64.4 °F - 62.6 °F 94% 30.16 in 5.0 mi SE 5.8 mph - N/A   Overcast
7:53 AM 64.9 °F - 63.0 °F 93% 30.15 in 5.0 mi SE 5.8 mph - N/A   Overcast
8:46 AM 66.2 °F - 64.4 °F 94% 30.18 in 7.0 mi Calm Calm - N/A   Overcast
8:53 AM 68.0 °F - 64.9 °F 90% 30.18 in 7.0 mi Calm Calm - N/A   Overcast
9:00 AM 69.8 °F - 64.4 °F 83% 30.19 in 8.0 mi Calm Calm - N/A   Overcast
9:38 AM 71.6 °F - 64.4 °F 78% 30.20 in 10.0 mi SE 5.8 mph - N/A   Partly Cloudy
9:53 AM 72.0 °F - 64.9 °F 78% 30.20 in 10.0 mi ESE 4.6 mph - N/A   Clear
10:53 AM 75.9 °F - 66.0 °F 71% 30.20 in 10.0 mi SSE 4.6 mph - N/A   Clear
11:53 AM 80.1 °F 82.3 °F 66.9 °F 64% 30.18 in 10.0 mi SSE 6.9 mph - N/A   Partly Cloudy
12:53 PM 81.0 °F 83.3 °F 66.9 °F 62% 30.15 in 10.0 mi Variable 3.5 mph - N/A   Overcast
1:53 PM 82.9 °F 85.4 °F 66.9 °F 58% 30.10 in 10.0 mi SSE 3.5 mph - N/A   Partly Cloudy
2:53 PM 82.9 °F 85.4 °F 66.9 °F 58% 30.07 in 10.0 mi Variable 3.5 mph - N/A   Clear
3:53 PM 82.0 °F 84.5 °F 66.9 °F 60% 30.06 in 10.0 mi South 6.9 mph - N/A   Scattered Clouds
4:53 PM 82.0 °F 84.9 °F 68.0 °F 62% 30.04 in 10.0 mi SSW 5.8 mph - N/A   Mostly Cloudy
5:53 PM 78.1 °F - 69.1 °F 74% 30.01 in 10.0 mi South 4.6 mph - N/A   Clear
6:53 PM 73.0 °F - 69.1 °F 87% 30.02 in 10.0 mi Calm Calm - N/A   Partly Cloudy
7:53 PM 71.1 °F - 68.0 °F 90% 30.04 in 7.0 mi Calm Calm - N/A   Clear
8:53 PM 73.0 °F - 69.1 °F 87% 30.04 in 10.0 mi SSW 4.6 mph - N/A   Clear
9:53 PM 72.0 °F - 69.1 °F 91% 30.04 in 9.0 mi SSW 4.6 mph - N/A   Clear
10:53 PM 70.0 °F - 68.0 °F 93% 30.04 in 6.0 mi South 5.8 mph - N/A   Partly Cloudy
11:53 PM 70.0 °F - 68.0 °F 93% 30.01 in 4.0 mi South 3.5 mph - N/A   Clear